x

Sentry Shoal (46131) Wave Buoy

2:00pm - Fri 19th Dec 2014 All times are PST. -8 hours from GMT.

  • Sig Wave height 3.9ft
  • Peak Period 4s
  • Wind
    27mph, 34mph gusts
  • Sea Temp 47°f
  • Air Temp 47°f
  • Sea Pressure 1008.1mb
  • Sentry Shoal
  • Sentry Shoal

More Historic Weather Station data

Upgrade to MSW Pro to gain access to the past 30 days of data for over 8000 Wavebouys and Weather Stations around the globe.

Join Pro

Comparision Forecast

View Surf forecast
   
Fri 12/19 2:00pm 4ft 4s 27 34 mph 1008.1mb 47f 47f
1:00pm 2.5ft 4s 27 31 mph 1008.4mb 47f 47f
12:00pm 2ft 3s 20 25 mph 1008.9mb 47f 47f
11:00am 2ft 4s 13 16 mph 1008.9mb 47f 47f
10:00am 2.5ft 4s 20 25 mph 1008.4mb 47f 47f
9:00am 2ft 4s 16 18 mph 1007.5mb 48f 47f
8:00am 2.5ft 4s 18 25 mph 1006.3mb 48f 48f
7:00am 2.5ft 4s 18 25 mph 1005.9mb 48f 48f
6:00am 3ft 4s 18 22 mph 1005.4mb 48f 49f
5:00am 3ft 4s 20 25 mph 1004.8mb 48f 49f
4:00am 3.5ft 5s 18 22 mph 1004.3mb 48f 49f
3:00am 4ft 5s 22 29 mph 1003.7mb 48f 49f
2:00am 4ft 5s 20 25 mph 1003.7mb 48f 49f
1:00am 4.5ft 5s 22 27 mph 1002.5mb 48f 48f
12:00am 5.5ft 5s 25 29 mph 1002.1mb 48f 49f
Thu 12/18 11:00pm 6ft 6s 27 31 mph 1001.6mb 48f 49f
10:00pm 6ft 5s 29 36 mph 1001mb 48f 49f
9:00pm 6ft 6s 27 36 mph 1001.4mb 48f 49f
8:00pm 5ft 6s 25 29 mph 1001.5mb 48f 49f
7:00pm 6ft 6s 25 31 mph 1001.2mb 48f 48f
6:00pm 5.5ft 5s 22 29 mph 1002.1mb 48f 47f
5:00pm 5.5ft 5s 22 29 mph 1002.7mb 48f 47f
4:00pm 5ft 5s 25 29 mph 1003.3mb 48f 47f
3:00pm 4.5ft 5s 25 31 mph 1004mb 48f 47f
2:00pm 4.5ft 5s 25 31 mph 1005mb 48f 47f
1:00pm 4.5ft 4s 22 27 mph 1006.3mb 48f 46f
12:00pm 4.5ft 5s 25 31 mph 1007.6mb 48f 46f
11:00am 4.5ft 5s 27 34 mph 1008.6mb 48f 46f
10:00am 3.5ft 4s 18 22 mph 1009.7mb 48f 46f
9:00am 3ft 4s 20 25 mph 1009.8mb 48f 46f
8:00am 1.6ft 3s 25 29 mph 1010.1mb 48f 46f
7:00am 1.3ft 3s 16 20 mph 1010.4mb 48f 46f
6:00am 1ft 3s 13 16 mph 1011.4mb 47f 45f
5:00am 1ft 3s 9 11 mph 1011.9mb 47f 45f
4:00am 0.3ft 3s 7 9 mph 1012.2mb 47f 45f
3:00am 0.3ft 3s 7 9 mph 1012.3mb 47f 45f
2:00am 0.7ft 3s 4 9 mph 1012.6mb 47f 45f
1:00am 0.7ft 3s 7 9 mph 1012.5mb 47f 45f
12:00am 0.7ft 3s 9
mph
1012.6mb 47f 45f
Wed 12/17 11:00pm 0.7ft 2s 9
mph
1012.6mb 47f 46f
10:00pm 0.7ft 2s 9 11 mph 1012.4mb 47f 46f
9:00pm 0.3ft 3s 7 9 mph 1012.6mb 47f 45f
8:00pm 0.3ft 3s 9
mph
1012.5mb 47f 45f
7:00pm 0.3ft 3s 7 9 mph 1012.1mb 47f 46f
6:00pm 0.3ft 3s 9 11 mph 1011.9mb 47f 45f
5:00pm 0.3ft 2s 4
mph
1011.7mb 47f 46f
4:00pm 0.3ft 2s 2 4 mph 1011.3mb 47f 45f
3:00pm 0.3ft 3s 2 4 mph 1010.9mb 47f 45f
2:00pm 0.7ft 3s 2
mph
1010.7mb 47f 45f
1:00pm 0.7ft 3s 4 7 mph 1010.6mb 47f 44f
12:00pm 1ft 3s 9
mph
1010.4mb 47f 45f
11:00am 1ft 4s 9 11 mph 1010.7mb 47f 45f
10:00am 1ft 4s 11 13 mph 1010.6mb 47f 46f
9:00am 1ft 4s 7 9 mph 1010.4mb 47f 45f
8:00am 1.3ft 4s 9 11 mph 1010.1mb 47f 45f
7:00am 1.3ft 4s 11
mph
1009.6mb 47f 46f
6:00am 1.6ft 4s 11 13 mph 1009.4mb 47f 46f
5:00am 1.6ft 4s 11 13 mph 1009mb 47f 46f
4:00am 1.6ft 5s 16 20 mph 1008.8mb 47f 46f
3:00am 1.3ft 4s 9 13 mph 1009mb 46f 46f
2:00am 1.6ft 4s 13 18 mph 1009.1mb 47f 46f
1:00am 2ft 4s 11 13 mph 1009mb 47f 46f
12:00am 2.5ft 4s 11 13 mph 1009.3mb 47f 46f
Tue 12/16 11:00pm 2.5ft 4s 13 18 mph 1009.6mb 47f 46f
10:00pm 1.6ft 4s 11 13 mph 1009.6mb 47f 46f
9:00pm 1ft 3s 11 13 mph 1009.9mb 47f 46f
8:00pm 0.7ft 2s 11 13 mph 1010mb 47f 46f
7:00pm 0.7ft 2s 13 16 mph 1010.1mb 47f 46f
6:00pm 0.7ft 2s 11 13 mph 1010.3mb 47f 45f
5:00pm 0.3ft 2s 9 11 mph 1010.4mb 47f 45f
4:00pm 0.3ft 2s 4 7 mph 1010.4mb 47f 44f
3:00pm 0.3ft 2s 9
mph
1010.3mb 47f 44f
2:00pm 0.3ft 2s 7 9 mph 1010.1mb 47f 44f
1:00pm 0.3ft 2s 7
mph
1010.1mb 47f 44f
12:00pm 0.3ft 2s 7 9 mph 1010.3mb 47f 44f
11:00am 0.3ft 2s  -  2 mph 1010.6mb 47f 43f
10:00am 0.3ft 2s 2
mph
1010.9mb 47f 43f
9:00am 0.3ft 2s 2 4 mph 1010.9mb 47f 43f
8:00am 0.3ft 2s 7 9 mph 1010.8mb 47f 43f
7:00am 0.3ft 2s 7 9 mph 1010.8mb 47f 43f
6:00am 0.3ft 8s 9 11 mph 1010.7mb 47f 43f
5:00am  -  8s 7 9 mph 1010.6mb 47f 43f
4:00am 0.3ft 2s 7
mph
1010.8mb 46f 42f
3:00am 0.3ft 2s 4 7 mph 1010.9mb 46f 42f
2:00am 0.3ft 2s 2
mph
1011mb 47f 42f
1:00am 0.3ft 2s 2 4 mph 1010.9mb 47f 42f
12:00am 0.3ft 2s 2
mph
1011mb 47f 41f